Time,TemperatureF,DewpointF,PressureIn,WindDirection,WindDirectionDegrees,WindSpeedMPH,WindSpeedGustMPH,Humidity,HourlyPrecipIn,Conditions,Clouds,dailyrainin,SoftwareType,DateUTC
2013-01-30 13:53:00,9.0,0.0,29.79,WNW,290,6.0,-999.0,67,-99.99,,,-99.99,,2013-01-30 20:53:00,
2013-01-30 14:03:00,9.0,1.0,29.78,WNW,302,5.0,-999.0,68,-99.99,,,-99.99,,2013-01-30 21:03:00,
2013-01-30 14:12:00,10.0,2.0,29.78,WNW,292,6.0,-999.0,69,-99.99,,,-99.99,,2013-01-30 21:12:00,
2013-01-30 14:23:00,10.0,2.0,29.79,NW,309,6.0,-999.0,70,-99.99,,,-99.99,,2013-01-30 21:23:00,
2013-01-30 14:32:00,10.0,2.0,29.77,WNW,297,6.0,-999.0,71,-99.99,,,-99.99,,2013-01-30 21:32:00,
2013-01-30 14:42:00,10.0,3.0,29.79,North,-999,5.0,-999.0,73,-99.99,,,-99.99,,2013-01-30 21:42:00,
2013-01-30 14:52:00,10.0,3.0,29.80,NW,306,6.0,-999.0,73,-99.99,,,-99.99,,2013-01-30 21:52:00,
2013-01-30 15:03:00,10.0,4.0,29.78,WNW,296,8.0,-999.0,75,-99.99,,,-99.99,,2013-01-30 22:03:00,
2013-01-30 15:12:00,11.0,5.0,29.78,NW,320,4.0,-999.0,75,-99.99,,,-99.99,,2013-01-30 22:12:00,
2013-01-30 15:22:00,11.0,5.0,29.79,WNW,300,5.0,-999.0,76,-99.99,,,-99.99,,2013-01-30 22:22:00,
2013-01-30 15:32:00,11.0,5.0,29.78,NW,310,4.0,-999.0,78,-99.99,,,-99.99,,2013-01-30 22:32:00,
2013-01-30 15:42:00,11.0,5.0,29.78,NNW,338,3.0,-999.0,78,-99.99,,,-99.99,,2013-01-30 22:42:00,
2013-01-30 15:52:00,11.0,5.0,29.78,NW,315,6.0,-999.0,78,-99.99,,,-99.99,,2013-01-30 22:52:00,
2013-01-30 16:02:00,11.0,6.0,29.80,NW,323,5.0,-999.0,79,-99.99,,,-99.99,,2013-01-30 23:02:00,
2013-01-30 16:12:00,11.0,6.0,29.80,NNW,328,7.0,-999.0,79,-99.99,,,-99.99,,2013-01-30 23:12:00,
2013-01-30 16:22:00,11.0,6.0,29.79,NW,320,6.0,-999.0,79,-99.99,,,-99.99,,2013-01-30 23:22:00,
2013-01-30 16:32:00,11.0,7.0,29.77,NNW,344,8.0,-999.0,80,-99.99,,,-99.99,,2013-01-30 23:32:00,
2013-01-30 16:42:00,11.0,6.0,29.78,NNW,335,4.0,-999.0,79,-99.99,,,-99.99,,2013-01-30 23:42:00,
2013-01-30 16:52:00,11.0,6.0,29.78,NNW,336,3.0,-999.0,78,-99.99,,,-99.99,,2013-01-30 23:52:00,
2013-01-30 17:02:00,11.0,6.0,29.78,North,-999,4.0,-999.0,79,-99.99,,,-99.99,,2013-01-31 00:02:00,
2013-01-30 17:11:00,9.0,5.0,29.77,NE,48,6.0,-999.0,82,-99.99,,,-99.99,,2013-01-31 00:11:00,
2013-01-30 17:22:00,8.0,4.0,29.78,ENE,57,4.0,-999.0,83,-99.99,,,-99.99,,2013-01-31 00:22:00,
2013-01-30 17:32:00,8.0,5.0,29.80,ENE,71,4.0,-999.0,84,-99.99,,,-99.99,,2013-01-31 00:32:00,
2013-01-30 17:42:00,8.0,4.0,29.80,ENE,77,4.0,-999.0,84,-99.99,,,-99.99,,2013-01-31 00:42:00,
2013-01-30 17:52:00,9.0,5.0,29.80,ENE,64,5.0,-999.0,84,-99.99,,,-99.99,,2013-01-31 00:52:00,
2013-01-30 18:02:00,8.0,4.0,29.80,ENE,61,5.0,-999.0,83,-99.99,,,-99.99,,2013-01-31 01:02:00,
2013-01-30 18:12:00,8.0,5.0,29.81,NE,56,5.0,-999.0,84,-99.99,,,-99.99,,2013-01-31 01:12:00,
2013-01-30 18:21:00,8.0,5.0,29.82,ENE,74,5.0,-999.0,84,-99.99,,,-99.99,,2013-01-31 01:21:00,
2013-01-30 18:32:00,8.0,4.0,29.81,East,84,4.0,-999.0,84,-99.99,,,-99.99,,2013-01-31 01:32:00,
2013-01-30 18:42:00,8.0,4.0,29.81,East,84,4.0,-999.0,84,-99.99,,,-99.99,,2013-01-31 01:42:00,
2013-01-30 18:52:00,8.0,4.0,29.80,East,80,3.0,-999.0,84,-99.99,,,-99.99,,2013-01-31 01:52:00,
2013-01-30 19:01:00,9.0,5.0,29.80,North,0,0.0,-999.0,84,-99.99,,,-99.99,,2013-01-31 02:01:00,
2013-01-30 19:12:00,9.0,6.0,29.79,North,0,0.0,-999.0,85,-99.99,,,-99.99,,2013-01-31 02:12:00,
2013-01-30 19:21:00,9.0,6.0,29.82,NNE,25,3.0,-999.0,85,-99.99,,,-99.99,,2013-01-31 02:21:00,
2013-01-30 19:32:00,9.0,6.0,29.80,NNE,19,2.0,-999.0,85,-99.99,,,-99.99,,2013-01-31 02:32:00,
2013-01-30 19:42:00,9.0,6.0,29.80,NNE,19,2.0,-999.0,85,-99.99,,,-99.99,,2013-01-31 02:42:00,
2013-01-30 19:52:00,9.0,6.0,29.80,NNE,19,2.0,-999.0,85,-99.99,,,-99.99,,2013-01-31 02:52:00,
2013-01-30 20:03:00,8.0,5.0,29.79,NNE,26,2.0,-999.0,86,-99.99,,,-99.99,,2013-01-31 03:03:00,
2013-01-30 20:11:00,8.0,5.0,29.82,NNE,31,2.0,-999.0,86,-99.99,,,-99.99,,2013-01-31 03:11:00,
2013-01-30 20:21:00,8.0,5.0,29.81,NE,47,2.0,-999.0,87,-99.99,,,-99.99,,2013-01-31 03:21:00,
2013-01-30 20:32:00,8.0,5.0,29.82,North,0,0.0,-999.0,87,-99.99,,,-99.99,,2013-01-31 03:32:00,
2013-01-30 20:42:00,8.0,5.0,29.82,North,0,0.0,-999.0,87,-99.99,,,-99.99,,2013-01-31 03:42:00,
2013-01-30 20:51:00,8.0,5.0,29.83,West,267,2.0,-999.0,87,-99.99,,,-99.99,,2013-01-31 03:51:00,
2013-01-30 21:02:00,8.0,5.0,29.82,WNW,297,3.0,-999.0,87,-99.99,,,-99.99,,2013-01-31 04:02:00,
2013-01-30 21:11:00,8.0,5.0,29.84,NW,310,2.0,-999.0,87,-99.99,,,-99.99,,2013-01-31 04:11:00,
2013-01-30 21:22:00,8.0,5.0,29.84,NNW,341,3.0,-999.0,88,-99.99,,,-99.99,,2013-01-31 04:22:00,
2013-01-30 21:32:00,8.0,5.0,29.84,NNE,18,4.0,-999.0,87,-99.99,,,-99.99,,2013-01-31 04:32:00,
2013-01-30 21:41:00,8.0,5.0,29.83,NNE,28,3.0,-999.0,87,-99.99,,,-99.99,,2013-01-31 04:41:00,
2013-01-30 21:51:00,8.0,5.0,29.84,NNE,23,6.0,-999.0,87,-99.99,,,-99.99,,2013-01-31 04:51:00,
2013-01-30 22:03:00,8.0,5.0,29.86,NE,38,5.0,-999.0,87,-99.99,,,-99.99,,2013-01-31 05:03:00,
2013-01-30 22:11:00,8.0,5.0,29.85,NE,38,7.0,-999.0,87,-99.99,,,-99.99,,2013-01-31 05:11:00,
2013-01-30 22:22:00,8.0,5.0,29.84,NE,42,4.0,-999.0,87,-99.99,,,-99.99,,2013-01-31 05:22:00,
2013-01-30 22:32:00,8.0,5.0,29.84,NE,42,4.0,-999.0,87,-99.99,,,-99.99,,2013-01-31 05:32:00,
2013-01-30 22:42:00,8.0,5.0,29.85,North,11,5.0,-999.0,87,-99.99,,,-99.99,,2013-01-31 05:42:00,
2013-01-30 22:52:00,8.0,5.0,29.85,North,11,5.0,-999.0,87,-99.99,,,-99.99,,2013-01-31 05:52:00,
2013-01-30 23:01:00,8.0,5.0,29.85,North,11,5.0,-999.0,87,-99.99,,,-99.99,,2013-01-31 06:01:00,